Location: ?????????
(54.7630°N, 39.4991°E)
Time: 18:50:04
(UTC+00:00)

SWAS - Pass Details

Date: 14 April 2026
Orbit: 532 x 544 km, 69.9° (Epoch: 19 May)

Event Time Altitude Azimuth Distance (km) Brightness Sun altitude
Rises 19:28:22 0° 325° (NW) 2,714 9.4 -21.3°
Reaches altitude 10° 19:30:34 10° 328° (NNW) 1,820 8.1 -21.5°
Maximum altitude 19:34:38 70° 52° (NE) 585 4.3 -21.8°
Enters shadow 19:34:56 66° 86° (E) 599 4.3 -21.8°
